Nashua, NH

5:28 PM EST on December 12, 2019 (GMT -0500)
Boire

Weather History for KASH - June, 2019

Change the Weather History Date:

Thursday, June 6, 2019

  Actual Average Record
Temperature  
Mean Temperature 68 °F -  
Max Temperature 80 °F 72 °F 92 °F (1968)
Min Temperature 57 °F 48 °F 31 °F (1964)
Cooling Degree Days 3    
Growing Degree Days 18 (Base 50)    
Moisture  
Dew Point 60 °F    
Average Humidity 86    
Maximum Humidity 100    
Minimum Humidity 45    
Precipitation  
Precipitation 1.02 in - - ()
Sea Level Pressure  
Sea Level Pressure 29.73 in    
Wind  
Wind Speed 3 mph ()    
Max Wind Speed 15 mph    
Max Gust Speed 16 mph    
Visibility 8.2 miles    
Events Rain , Thunderstorm    
Averages and records for this station are not official NWS values.
T = Trace of Precipitation, MM = Missing Value Source: Averaged Metar Reports

Daily Weather History Graph

Daily Weather History Graph

Search for Another Location

Airport or City:

Astronomy

Jun. 06, 2019 Rise Set
Actual Time 5:08 AM EDT 8:21 PM EDT
Civil Twilight 4:33 AM EDT 8:55 PM EDT
Nautical Twilight 3:49 AM EDT 9:40 PM EDT
Astronomical Twilight 2:55 AM EDT 10:34 PM EDT
Moon 8:14 AM EDT (6/6) 11:35 PM EDT (6/6)
Length of Visible Light 16h 22m
Length of Day
15h 12m
Waxing Crescent, 13% of the Moon is Illuminated
Jun 6
Waxing Crescent
Jun 10
First Quarter
Jun 17
Full
Jun 25
Last Quarter
Jul 2
New

Hourly Weather History & Observations

Time (EDT) Temp. Dew Point Humidity Pressure Visibility Wind Dir Wind Speed Gust Speed Precip Events Conditions
12:16 AM 57.2 °F 57.2 °F 100% 29.72 in 6.0 mi Calm Calm - 0.06 in Rain , Thunderstorm Thunderstorms and Rain
12:26 AM 59.0 °F 59.0 °F 100% 29.72 in 6.0 mi Calm Calm - 0.10 in Rain , Thunderstorm Thunderstorms and Rain
12:36 AM 59.0 °F 59.0 °F 100% 29.73 in 2.0 mi WNW 5.8 mph - 0.27 in Rain , Thunderstorm Heavy Thunderstorms and Rain
12:46 AM 57.2 °F 57.2 °F 100% 29.71 in 3.0 mi NNW 4.6 mph - 0.42 in Rain Heavy Rain
12:56 AM 57.9 °F 57.9 °F 100% 29.74 in 4.0 mi NNW 3.5 mph - 0.50 in Rain , Thunderstorm Heavy Rain
1:13 AM 57.2 °F 57.2 °F 100% 29.70 in 2.0 mi Calm Calm - 0.23 in Rain Heavy Rain
1:16 AM 57.2 °F 57.2 °F 100% 29.70 in 1.8 mi Calm Calm - 0.27 in Rain Heavy Rain
1:22 AM 59.0 °F 59.0 °F 100% 29.69 in 2.0 mi Calm Calm - 0.30 in Rain Light Rain
1:31 AM 59.0 °F 59.0 °F 100% 29.69 in 10.0 mi Calm Calm - 0.30 in Rain Light Rain
1:56 AM 59.0 °F 59.0 °F 100% 29.71 in 10.0 mi Calm Calm - 0.30 in   Overcast
2:24 AM 59.0 °F 59.0 °F 100% 29.67 in 9.0 mi Calm Calm - 0.00 in Rain Light Rain
2:47 AM 59.0 °F 59.0 °F 100% 29.66 in 5.0 mi Calm Calm - 0.00 in Rain Light Rain
2:56 AM 59.0 °F 59.0 °F 100% 29.69 in 6.0 mi Calm Calm - 0.00 in   Overcast
3:56 AM 59.0 °F 59.0 °F 100% 29.67 in 8.0 mi NNW 3.5 mph - 0.02 in Rain Light Rain
4:56 AM 59.0 °F 59.0 °F 100% 29.65 in 10.0 mi Calm Calm - 0.02 in Rain Light Rain
5:56 AM 59.0 °F 59.0 °F 100% 29.65 in 10.0 mi SSE 3.5 mph - 0.02 in Rain Light Rain
6:56 AM 60.1 °F 60.1 °F 100% 29.67 in 10.0 mi NW 4.6 mph - 0.16 in   Overcast
7:56 AM 61.0 °F 61.0 °F 100% 29.69 in 10.0 mi NNW 4.6 mph - N/A   Overcast
8:56 AM 64.0 °F 64.0 °F 100% 29.70 in 10.0 mi NNW 5.8 mph - N/A   Overcast
9:56 AM 66.0 °F 64.0 °F 93% 29.73 in 10.0 mi NNW 8.1 mph - N/A   Overcast
10:18 AM 69.8 °F 64.4 °F 83% 29.70 in 10.0 mi NNW 12.7 mph - N/A   Overcast
10:46 AM 69.8 °F 64.4 °F 83% 29.71 in 10.0 mi Variable 5.8 mph 16.1 mph N/A   Mostly Cloudy
10:56 AM 71.1 °F 64.0 °F 78% 29.74 in 10.0 mi NNE 8.1 mph - N/A   Overcast
11:38 AM 71.6 °F 64.4 °F 78% 29.72 in 10.0 mi North 6.9 mph - N/A   Mostly Cloudy
11:56 AM 73.9 °F 64.0 °F 71% 29.75 in 10.0 mi NNE 9.2 mph 16.1 mph N/A   Mostly Cloudy
12:56 PM 75.9 °F 64.0 °F 67% 29.76 in 10.0 mi NW 9.2 mph - N/A   Overcast
1:56 PM 77.0 °F 62.1 °F 60% 29.75 in 10.0 mi NW 9.2 mph - N/A   Mostly Cloudy
2:56 PM 79.0 °F 59.0 °F 50% 29.76 in 10.0 mi NW 10.4 mph 16.1 mph N/A   Clear
3:56 PM 79.0 °F 57.0 °F 47% 29.77 in 10.0 mi NW 15.0 mph - N/A   Scattered Clouds
4:56 PM 79.0 °F 55.9 °F 45% 29.78 in 10.0 mi WNW 9.2 mph - N/A   Scattered Clouds
5:56 PM 79.0 °F 55.9 °F 45% 29.78 in 10.0 mi NW 13.8 mph - N/A   Scattered Clouds
6:56 PM 78.1 °F 55.0 °F 45% 29.81 in 10.0 mi NNW 9.2 mph - N/A   Partly Cloudy
7:56 PM 73.0 °F 57.9 °F 59% 29.82 in 10.0 mi Variable 3.5 mph - N/A   Partly Cloudy
8:56 PM 68.0 °F 64.0 °F 87% 29.84 in 10.0 mi SE 5.8 mph - N/A   Clear
9:56 PM 64.9 °F 62.1 °F 90% 29.88 in 10.0 mi SE 3.5 mph - N/A   Clear
11:56 PM 60.1 °F 60.1 °F 100% 29.90 in 10.0 mi Calm Calm - N/A   Clear